Back to catalog

DELTA 1 DEB

AliveUNKNOWN
NORAD 7194·DEBRIS·🇺🇸 United States

Launched Nov 6, 1973 from Vandenberg Space Force Base

Loading…

Next Passes (next 24 hours)

TLE

FreshSource: Space-Track

Epoch: Sep 14, 2026, 08:11 UTC

1 07194U 73086FC  26257.34110830  .00000158  00000-0  30914-2 0  9990
2 07194 102.6747 291.1799 0538667  22.7160 351.0882 11.49965244214112

Track DELTA 1 DEB in real time with AllMySat

Download on the App Store